Location: El Jarillo
(10.3667°N, 67.1667°W)
Time: 03:43:53
(UTC+00:00)

Cosmos 2233 Rocket - Pass Details

Date: 08 September 2024
Orbit: 954 x 989 km, 82.9° (Epoch: 09 October)

Event Time Altitude Azimuth Distance (km) Brightness Sun altitude
Rises 23:12:04 0° 178° (S) 3,631 6.9 -10.3°
Reaches altitude 10° 23:14:35 10° 175° (S) 2,681 6.2 -10.9°
Maximum altitude 23:20:40 70° 93° (E) 1,012 3.9 -12.4°
Drops below altitude 10° 23:26:44 10° 10° (N) 2,674 6.3 -13.9°
Sets 23:29:14 0° 8° (N) 3,620 7.0 -14.5°
